When you browse on this site, cookies collect data to enhance your experience and personalize the content and advertising you see.
Visit our Privacy Policy to learn more. By continuing to use the site, you agree to this use of cookies and data.
  • In Deutschland
  • Länderverzeichnis
  • Für 7 Tage
  • Wassertemperatur
  • Satellitenkarten
  • Wetterkarte
  • Widgets
  • user-avatar
    Anmelden

    Stündliche Wetter Kielczykowizna

    Heute, 22 Mai, Mittwoch

    Zeit Temperatur Niederschläge Wind Luftdruck Luftfeuchtigkeit
    00:00 +12°C° 0 mm 4 m/S 743 mmHg 90%
    01:00 +11°C° 0 mm 4 m/S 743 mmHg 91%
    02:00 +11°C° 0 mm 4 m/S 743 mmHg 91%
    03:00 +11°C° 0 mm 4 m/S 743 mmHg 92%
    04:00 +10°C° 0 mm 5 m/S 743 mmHg 92%
    05:00 +12°C° 0 mm 5 m/S 743 mmHg 89%
    06:00 +13°C° 0 mm 5 m/S 743 mmHg 85%
    07:00 +15°C° 0 mm 5 m/S 743 mmHg 80%
    08:00 +15°C° 0.1 mm 5 m/S 744 mmHg 79%
    09:00 +16°C° 0.1 mm 5 m/S 744 mmHg 77%
    10:00 +16°C° 0.1 mm 5 m/S 744 mmHg 76%
    11:00 +17°C° 0.4 mm 5 m/S 744 mmHg 74%
    12:00 +19°C° 0.4 mm 5 m/S 744 mmHg 72%
    13:00 +20°C° 0.4 mm 4 m/S 744 mmHg 70%
    14:00 +20°C° 0.7 mm 4 m/S 744 mmHg 71%
    15:00 +20°C° 0.7 mm 4 m/S 744 mmHg 73%
    16:00 +20°C° 0.7 mm 4 m/S 744 mmHg 74%
    17:00 +19°C° 0.5 mm 3 m/S 744 mmHg 78%
    18:00 +18°C° 0.5 mm 3 m/S 744 mmHg 83%
    19:00 +17°C° 0.5 mm 3 m/S 744 mmHg 87%
    20:00 +17°C° 0.3 mm 2 m/S 744 mmHg 89%
    21:00 +16°C° 0.3 mm 2 m/S 745 mmHg 91%
    22:00 +15°C° 0.3 mm 2 m/S 745 mmHg 93%
    23:00 +15°C° 0.2 mm 2 m/S 745 mmHg 93%

    Morgen, 23 Mai, Donnerstag

    Zeit Temperatur Niederschläge Wind Luftdruck Luftfeuchtigkeit
    00:00 +14°C° 0.2 mm 2 m/S 746 mmHg 94%
    01:00 +14°C° 0.2 mm 1 m/S 746 mmHg 94%
    02:00 +14°C° 0 mm 1 m/S 746 mmHg 95%
    03:00 +13°C° 0 mm 1 m/S 746 mmHg 95%
    04:00 +13°C° 0 mm 1 m/S 746 mmHg 95%
    05:00 +14°C° 0 mm 1 m/S 747 mmHg 91%
    06:00 +16°C° 0 mm 1 m/S 747 mmHg 88%
    07:00 +17°C° 0 mm 2 m/S 748 mmHg 84%
    08:00 +19°C° 0.1 mm 2 m/S 748 mmHg 78%
    09:00 +20°C° 0.1 mm 2 m/S 748 mmHg 72%
    10:00 +21°C° 0.1 mm 2 m/S 748 mmHg 66%
    11:00 +21°C° 0.9 mm 3 m/S 748 mmHg 67%
    12:00 +22°C° 0.9 mm 3 m/S 748 mmHg 69%
    13:00 +22°C° 0.9 mm 3 m/S 748 mmHg 70%
    14:00 +21°C° 1.1 mm 4 m/S 748 mmHg 73%
    15:00 +21°C° 1.1 mm 5 m/S 748 mmHg 76%
    16:00 +21°C° 1.1 mm 5 m/S 748 mmHg 79%
    17:00 +19°C° 0.3 mm 5 m/S 748 mmHg 82%
    18:00 +17°C° 0.3 mm 5 m/S 748 mmHg 84%
    19:00 +16°C° 0.3 mm 5 m/S 749 mmHg 87%
    20:00 +15°C° 0 mm 5 m/S 749 mmHg 88%
    21:00 +14°C° 0 mm 4 m/S 749 mmHg 89%
    22:00 +13°C° 0 mm 4 m/S 750 mmHg 91%
    23:00 +12°C° 0 mm 4 m/S 750 mmHg 88%

    übermorgen, 24 Mai, Freitag

    Zeit Temperatur Niederschläge Wind Luftdruck Luftfeuchtigkeit
    00:00 +12°C° 0 mm 4 m/S 750 mmHg 86%
    01:00 +12°C° 0 mm 4 m/S 750 mmHg 83%
    02:00 +11°C° 0 mm 4 m/S 750 mmHg 82%
    03:00 +11°C° 0 mm 3 m/S 750 mmHg 81%
    04:00 +10°C° 0 mm 3 m/S 750 mmHg 80%
    05:00 +11°C° 0 mm 3 m/S 750 mmHg 79%
    06:00 +12°C° 0 mm 3 m/S 750 mmHg 78%
    07:00 +13°C° 0 mm 3 m/S 750 mmHg 77%
    08:00 +15°C° 0 mm 4 m/S 750 mmHg 72%
    09:00 +17°C° 0 mm 4 m/S 750 mmHg 67%
    10:00 +19°C° 0 mm 4 m/S 750 mmHg 63%
    11:00 +20°C° 0 mm 4 m/S 750 mmHg 60%
    12:00 +21°C° 0 mm 4 m/S 750 mmHg 58%
    13:00 +21°C° 0 mm 5 m/S 749 mmHg 56%
    14:00 +21°C° 0 mm 4 m/S 749 mmHg 56%
    15:00 +21°C° 0 mm 4 m/S 749 mmHg 56%
    16:00 +22°C° 0 mm 4 m/S 749 mmHg 57%
    17:00 +20°C° 0 mm 4 m/S 748 mmHg 62%
    18:00 +19°C° 0 mm 3 m/S 748 mmHg 67%
    19:00 +18°C° 0 mm 3 m/S 748 mmHg 72%
    20:00 +16°C° 0 mm 2 m/S 749 mmHg 75%
    21:00 +15°C° 0 mm 2 m/S 749 mmHg 79%
    22:00 +14°C° 0 mm 2 m/S 749 mmHg 82%
    23:00 +13°C° 0 mm 1 m/S 749 mmHg 83%

    25 Mai, Samstag

    Zeit Temperatur Niederschläge Wind Luftdruck Luftfeuchtigkeit
    00:00 +13°C° 0 mm 1 m/S 749 mmHg 83%
    01:00 +11°C° 0 mm 0 m/S 749 mmHg 84%
    02:00 +11°C° 0 mm 0 m/S 749 mmHg 83%
    03:00 +12°C° 0 mm 1 m/S 749 mmHg 83%
    04:00 +12°C° 0 mm 1 m/S 749 mmHg 83%
    05:00 +14°C° 0 mm 2 m/S 749 mmHg 80%
    06:00 +16°C° 0 mm 2 m/S 748 mmHg 76%
    07:00 +17°C° 0 mm 3 m/S 748 mmHg 73%
    08:00 +19°C° 0.1 mm 3 m/S 748 mmHg 67%
    09:00 +20°C° 0.1 mm 4 m/S 748 mmHg 60%
    10:00 +21°C° 0.1 mm 4 m/S 748 mmHg 54%
    11:00 +21°C° 0.2 mm 5 m/S 748 mmHg 55%
    12:00 +21°C° 0.2 mm 5 m/S 748 mmHg 57%
    13:00 +21°C° 0.2 mm 6 m/S 748 mmHg 59%
    14:00 +21°C° 0.1 mm 5 m/S 747 mmHg 58%
    15:00 +21°C° 0.1 mm 5 m/S 747 mmHg 57%
    16:00 +21°C° 0.1 mm 5 m/S 747 mmHg 56%
    17:00 +20°C° 0 mm 4 m/S 747 mmHg 61%
    18:00 +18°C° 0 mm 4 m/S 747 mmHg 65%
    19:00 +17°C° 0 mm 3 m/S 747 mmHg 69%
    20:00 +16°C° 0 mm 3 m/S 748 mmHg 71%
    21:00 +16°C° 0 mm 3 m/S 748 mmHg 73%
    22:00 +14°C° 0 mm 3 m/S 748 mmHg 75%
    23:00 +13°C° 0 mm 3 m/S 748 mmHg 79%

    26 Mai, Sonntag

    Zeit Temperatur Niederschläge Wind Luftdruck Luftfeuchtigkeit
    00:00 +12°C° 0 mm 3 m/S 748 mmHg 83%
    01:00 +11°C° 0 mm 3 m/S 748 mmHg 87%
    02:00 +10°C° 0 mm 3 m/S 748 mmHg 88%
    03:00 +10°C° 0 mm 3 m/S 748 mmHg 89%
    04:00 +9°C° 0 mm 3 m/S 748 mmHg 90%
    05:00 +10°C° 0 mm 3 m/S 748 mmHg 85%
    06:00 +11°C° 0 mm 4 m/S 748 mmHg 80%
    07:00 +13°C° 0 mm 5 m/S 748 mmHg 75%
    08:00 +13°C° 0 mm 5 m/S 748 mmHg 72%
    09:00 +14°C° 0 mm 6 m/S 748 mmHg 69%
    10:00 +14°C° 0 mm 6 m/S 747 mmHg 66%
    11:00 +14°C° 0 mm 6 m/S 747 mmHg 65%
    12:00 +14°C° 0 mm 6 m/S 747 mmHg 64%
    13:00 +14°C° 0 mm 6 m/S 747 mmHg 63%
    14:00 +14°C° 0.1 mm 6 m/S 747 mmHg 63%
    15:00 +14°C° 0.1 mm 7 m/S 747 mmHg 62%
    16:00 +14°C° 0.1 mm 7 m/S 747 mmHg 62%
    17:00 +13°C° 0.1 mm 6 m/S 747 mmHg 65%
    18:00 +11°C° 0.1 mm 6 m/S 747 mmHg 68%
    19:00 +10°C° 0.1 mm 5 m/S 747 mmHg 71%
    20:00 +9°C° 0 mm 5 m/S 747 mmHg 71%
    21:00 +8°C° 0 mm 5 m/S 747 mmHg 72%
    22:00 +7°C° 0 mm 5 m/S 748 mmHg 72%
    23:00 +7°C° 0 mm 5 m/S 748 mmHg 73%

    27 Mai, Montag

    Zeit Temperatur Niederschläge Wind Luftdruck Luftfeuchtigkeit
    00:00 +7°C° 0 mm 5 m/S 748 mmHg 74%
    01:00 +6°C° 0 mm 5 m/S 748 mmHg 75%
    02:00 +6°C° 0 mm 4 m/S 748 mmHg 75%
    03:00 +6°C° 0 mm 4 m/S 749 mmHg 76%
    04:00 +6°C° 0 mm 4 m/S 749 mmHg 77%
    05:00 +7°C° 0 mm 5 m/S 749 mmHg 74%
    06:00 +8°C° 0 mm 5 m/S 749 mmHg 70%
    07:00 +10°C° 0 mm 5 m/S 749 mmHg 67%
    08:00 +12°C° 0 mm 5 m/S 749 mmHg 64%
    09:00 +13°C° 0 mm 5 m/S 749 mmHg 60%
    10:00 +14°C° 0 mm 4 m/S 749 mmHg 57%
    11:00 +17°C° 0 mm 4 m/S 749 mmHg 54%
    12:00 +18°C° 0 mm 4 m/S 749 mmHg 50%
    13:00 +19°C° 0 mm 4 m/S 749 mmHg 47%
    14:00 +19°C° 0 mm 3 m/S 748 mmHg 46%
    15:00 +19°C° 0 mm 3 m/S 748 mmHg 46%
    16:00 +20°C° 0 mm 2 m/S 748 mmHg 45%
    17:00 +19°C° 0 mm 2 m/S 747 mmHg 51%
    18:00 +17°C° 0 mm 2 m/S 747 mmHg 56%
    19:00 +16°C° 0 mm 2 m/S 747 mmHg 62%
    20:00 +16°C° 0 mm 2 m/S 746 mmHg 64%
    21:00 +14°C° 0 mm 3 m/S 746 mmHg 65%
    22:00 +13°C° 0 mm 3 m/S 746 mmHg 66%
    23:00 +13°C° 0 mm 3 m/S 746 mmHg 70%
    Mehr zeigen